This is the latest recevied weather packets stored in our database for station/object K0VSC-1. If no packets are shown the sender has not sent any weather packets the latest 10 day(s).
| Time | Temp. | Humidity | Pressure | Rain* | Wind** | Luminosity | Snow |
|---|---|---|---|---|---|---|---|
| 1777756092 | 18.33° C | 33% | 1010.6 hPa | 0 mm | - | 359 W/m² | - |
| 1777755792 | 18.33° C | 33% | 1010.7 hPa | 0 mm | - | 350 W/m² | - |
| 1777755492 | 18.33° C | 32% | 1010.9 hPa | 0 mm | - | 322 W/m² | - |
| 1777755193 | 18.33° C | 33% | 1010.9 hPa | 0 mm | - | 260 W/m² | - |
| 1777754892 | 18.33° C | 33% | 1010.9 hPa | 0 mm | - | 264 W/m² | - |
| 1777754593 | 17.78° C | 33% | 1011 hPa | 0 mm | - | 265 W/m² | - |
| 1777754293 | 18.33° C | 34% | 1011 hPa | 0 mm | - | 267 W/m² | - |
| 1777753992 | 17.78° C | 34% | 1011.3 hPa | 0 mm | - | 267 W/m² | - |
| 1777753693 | 18.33° C | 34% | 1011.3 hPa | 0 mm | - | 316 W/m² | - |
| 1777753392 | 17.78° C | 34% | 1011.4 hPa | 0 mm | - | 339 W/m² | - |
| 1777753093 | 17.78° C | 35% | 1011.5 hPa | 0 mm | - | 432 W/m² | - |
| 1777752793 | 17.78° C | 34% | 1011.7 hPa | 0 mm | - | 360 W/m² | - |
| 1777752493 | 17.78° C | 34% | 1011.8 hPa | 0 mm | - | 492 W/m² | - |
| 1777752193 | 17.78° C | 35% | 1012 hPa | 0 mm | - | 329 W/m² | - |
| 1777751893 | 17.78° C | 36% | 1012 hPa | 0 mm | - | 427 W/m² | - |
| 1777751593 | 17.78° C | 36% | 1012.2 hPa | 0 mm | - | 371 W/m² | - |
| 1777751293 | 17.78° C | 36% | 1012.3 hPa | 0 mm | - | 772 W/m² | - |
| 1777750993 | 18.33° C | 36% | 1012.2 hPa | 0 mm | - | 831 W/m² | - |
| 1777750693 | 17.78° C | 36% | 1012.4 hPa | 0 mm | - | 816 W/m² | - |
| 1777750393 | 17.78° C | 36% | 1012.5 hPa | 0 mm | - | 798 W/m² | - |
| 1777750093 | 17.22° C | 36% | 1012.6 hPa | 0 mm | - | 817 W/m² | - |
| 1777749793 | 17.22° C | 37% | 1012.7 hPa | 0 mm | - | 867 W/m² | - |
| 1777749493 | 16.67° C | 37% | 1012.8 hPa | 0 mm | - | 828 W/m² | - |
| 1777749193 | 16.67° C | 39% | 1013 hPa | 0 mm | - | 777 W/m² | - |
| 1777748893 | 17.22° C | 37% | 1013.1 hPa | 0 mm | - | 835 W/m² | - |
* Rain latest hour (hover to see other rain measurements)
** Current wind speed in m/s (hover to see current wind gust speed)